[[{"header":{"parameterUnit":"m.s-1","parameterCategory":1,"la1":30.2991,"la2":30.254,"lo1":-89.0895,"lo2":-89.0444,"dy":0.0017,"dx":0.0017,"nx":28,"ny":28,"refTime":"2025-07-10T09:00:00:Z","depth":0,"parameterNumber":2,"parameterNumberName":"U-component_of_WINDS"},"data":[0,0,0,0,0,0,0,0,0,0,0,0,0,0,0,0,0,0,0,0,0,0,0,0,0,0,0,0,0,0,0,0,0,0,0,0,0,0,0,0,0,0,0,0,0,0,0,0,0,0,0,0,0,0,0,0,0,0,3.1289,3.129,0,3.139,3.1391,3.1393,3.1322,3.1319,3.1315,3.1312,3.1419,3.1425,3.143,0,0,0,0,0,0,0,0,0,0,0,0,0,3.1036,3.1041,3.1289,3.129,3.1292,3.139,3.1391,3.1393,3.1322,3.1318,3.1315,3.1311,3.1417,3.1424,3.1431,0,0,0,0,0,0,0,0,0,0,0,0,0,3.1143,3.1043,3.1289,3.1268,3.1267,3.139,3.1392,3.1393,3.1323,3.1318,3.1314,3.1309,3.1415,3.1423,3.1432,3.1581,0,0,3.1459,3.1462,0,0,0,0,0,0,0,0,3.1137,3.1152,3.127,3.127,3.1269,3.1338,3.1341,3.1456,3.1324,3.1302,3.1312,3.1307,3.1396,3.1406,3.1436,3.1586,3.1591,3.1459,3.1465,3.1468,3.1471,0,0,0,0,0,0,0,3.1129,3.1147,3.1329,3.1272,3.1271,3.1254,3.1264,3.1363,3.1375,3.1304,3.1299,3.1311,3.1395,3.1428,3.1438,3.1592,3.1459,3.1467,3.1472,3.1476,3.1867,3.1872,0,0,0,0,0,0,3.1124,3.1142,3.1326,3.1332,3.119,3.1263,3.1274,3.1321,3.1374,3.1377,3.1315,3.1308,3.1415,3.1428,3.1441,3.1616,3.1468,3.1476,3.1481,3.1862,3.1868,3.1873,0,0,0,0,0,0,3.1118,3.1141,3.1322,3.1236,3.1257,3.1272,3.1326,3.1326,3.1358,3.1382,3.1384,3.1346,3.1412,3.1429,3.1546,3.1619,3.148,3.1488,3.1855,3.1863,3.1871,3.197,0,0,0,0,0,0,3.1111,3.1139,3.1196,3.1237,3.1262,3.1425,3.1331,3.1331,3.1373,3.1364,3.1412,3.1415,3.1409,3.1533,3.1555,3.1629,3.1495,3.1849,3.1859,3.1868,3.196,3.198,3.1997,0,0,0,0,0,3.1103,3.1222,3.1199,3.1222,3.1333,3.1429,3.1443,3.1433,3.1379,3.1436,3.1451,3.1414,3.1608,3.1546,3.1569,3.1647,3.1844,3.1856,3.1867,3.1952,3.1976,3.1997,0,0,0,0,0,0,3.119,3.1227,3.1202,3.1338,3.1381,3.1417,3.1489,3.146,3.152,3.1509,3.1495,3.1507,3.1628,3.165,3.158,3.1792,3.1718,3.1734,3.1774,3.1797,3.1815,3.1806,3.1502,0,0,0,0,0,3.1225,3.1299,3.1327,3.1444,3.1467,3.1474,3.1516,3.1504,3.1548,3.1566,3.159,3.1635,3.1706,3.1753,3.182,3.1963,3.1971,3.2028,3.2047,3.2062,3.2076,3.215,3.2175,3.1911,3.1911,3.1911,0,0,3.1298,3.1327,3.1375,3.1463,3.1494,3.1571,3.149,3.1576,3.1632,3.158,3.169,3.1709,3.1759,3.1888,3.1947,3.191,3.2151,3.2077,3.2089,3.2094,3.2164,3.2189,3.2211,3.1919,3.1918,3.1917,0,0,3.147,3.1501,3.16,3.1632,3.1681,3.1684,3.1708,3.1748,3.1758,3.1869,3.183,3.1898,3.2021,3.2056,3.2091,3.2273,3.224,3.2296,3.2392,3.2464,3.2485,3.2503,3.2565,3.2588,3.231,3.2311,3.2311,0,3.1555,3.1668,3.1655,3.1742,3.178,3.1735,3.1834,3.1867,3.1936,3.1963,3.1921,3.2072,3.2102,3.2238,3.2282,3.2313,3.2338,3.2289,3.2483,3.2501,3.2518,3.2577,3.2601,3.2317,3.2316,3.2315,3.2315,0,3.1769,3.1848,3.1923,3.1987,3.2034,3.2128,3.2127,3.2177,3.2161,3.2169,3.2281,3.2315,3.2386,3.2418,3.2405,3.2552,3.2527,3.2485,3.2408,3.2549,3.2604,3.2627,3.2326,3.2323,3.2322,3.232,0,0,3.1999,3.2052,3.208,3.2107,3.2156,3.2217,3.2308,3.2375,3.2417,3.2466,3.254,3.2644,3.2604,3.2643,3.2633,3.2697,3.2835,3.2646,3.2647,3.2677,3.2996,3.3025,3.3051,3.2814,3.2819,3.2822,3.299,0,3.2171,3.2326,3.2315,3.2462,3.2534,3.2491,3.2569,3.2608,3.2617,3.268,3.2691,3.2763,3.2707,3.2729,3.2791,3.2805,3.2898,3.2793,3.2882,3.2885,3.2868,3.3081,3.3113,3.327,3.3012,3.3016,3.3018,0,3.2392,3.2445,3.2598,3.2633,3.2663,3.2734,3.2793,3.2854,3.2896,3.2899,3.2941,3.2919,3.301,3.2933,3.3057,3.2985,3.3021,3.3034,3.3039,3.3045,3.2958,3.309,3.332,3.3343,3.3053,3.305,3.3048,0,3.254,3.2651,3.2755,3.2781,3.2825,3.2875,3.2896,3.2934,3.2974,3.3027,3.3053,3.3117,3.3151,3.3201,3.3197,3.3142,3.3321,3.3245,3.3324,3.3325,3.3362,3.336,3.3599,3.3391,3.339,3.339,3.3389,0,3.2731,3.2826,3.2822,3.2886,3.2991,3.2977,3.3081,3.3097,3.313,3.3196,3.3164,3.3227,3.3219,3.3283,3.3281,3.3381,3.3398,3.3402,3.3399,3.3403,3.3402,3.3424,3.3412,3.3396,3.3395,3.3394,3.3392,0,3.2914,3.2915,3.3026,3.3058,3.3068,3.3143,3.3171,3.3231,3.3238,3.3322,3.3341,3.3351,3.3424,3.3425,3.351,3.3508,3.363,3.3617,3.3615,3.3611,3.3689,3.3681,3.3949,3.3982,3.3755,3.3757,3.3759,0,3.3035,3.3106,3.3145,3.3186,3.3209,3.3277,3.3317,3.3306,3.335,3.3401,3.3455,3.3524,3.3579,3.3697,3.3712,3.3775,3.3762,3.3852,3.3771,3.3771,3.3759,3.3754,3.376,3.3867,3.3869,3.3871,3.3873,0,3.3248,3.3244,3.3302,3.3361,3.3409,3.3456,3.3498,3.3534,3.3528,3.3578,3.3651,3.3693,3.3777,3.3845,3.3906,3.3928,3.3899,3.3898,3.3919,3.3922,3.3917,3.3917,3.3654,3.3892,3.389,3.3889,3.3888,3.3887,3.3401,3.346,3.3496,3.3562,3.3592,3.3632,3.3689,3.3701,3.3761,3.3827,3.3818,3.3898,3.3936,3.4014,3.4042,3.4104,3.4073,3.4104,3.4112,3.4119,3.4126,3.3909,3.4116,3.4115,3.4115,3.4114,3.4114,0,3.3609,3.3629,3.369,3.3748,3.38,3.3767,3.3812,3.3857,3.3927,3.3965,3.4018,3.41,3.4166,3.4185,3.4248,3.4294,3.4283,3.4311,3.4306,3.4311,3.4152,3.4125,3.4319,3.4319,3.4319,3.4319,3.4319,3.4319,3.3723,3.3822,3.3822,3.3934,3.3954,3.4031,3.4058,3.4094,3.4124,3.4216,3.4269,3.4281,3.4311,3.4376,3.4434,3.4438,3.4461,3.4495,3.4493,3.4344,3.4323,3.4303,3.4278,3.4501,3.4501,3.4647,3.4648,3.4649]},{"header":{"parameterUnit":"m.s-1","parameterCategory":1,"la1":30.2991,"la2":30.254,"lo1":-89.0895,"lo2":-89.0444,"dy":0.0017,"dx":0.0017,"nx":28,"ny":28,"refTime":"2025-07-10T09:00:00:Z","depth":0,"parameterNumber":3,"parameterNumberName":"V-component_of_WINDS"},"data":[0,0,0,0,0,0,0,0,0,0,0,0,0,0,0,0,0,0,0,0,0,0,0,0,0,0,0,0,0,0,0,0,0,0,0,0,0,0,0,0,0,0,0,0,0,0,0,0,0,0,0,0,0,0,0,0,0,0,0.2819,0.2818,0,0.2766,0.2765,0.2764,0.2671,0.2669,0.2668,0.2666,0.2614,0.2615,0.2615,0,0,0,0,0,0,0,0,0,0,0,0,0,0.2841,0.2841,0.2819,0.2818,0.2817,0.2766,0.2765,0.2764,0.2672,0.2669,0.2667,0.2665,0.2614,0.2615,0.2615,0,0,0,0,0,0,0,0,0,0,0,0,0,0.2814,0.2841,0.2819,0.2765,0.2759,0.2766,0.2765,0.2764,0.2672,0.2669,0.2667,0.2664,0.2614,0.2615,0.2615,0.2671,0,0,0.2616,0.2616,0,0,0,0,0,0,0,0,0.2816,0.2813,0.2773,0.2768,0.2762,0.2722,0.2754,0.2733,0.2673,0.2705,0.2666,0.2663,0.2653,0.265,0.2646,0.2668,0.2666,0.2616,0.2617,0.2617,0.2617,0,0,0,0,0,0,0,0.2818,0.2815,0.2798,0.2773,0.2766,0.2744,0.2737,0.2749,0.2695,0.2702,0.2695,0.269,0.2649,0.2646,0.2644,0.2665,0.2616,0.2617,0.2617,0.2617,0.273,0.2733,0,0,0,0,0,0,0.2827,0.2817,0.2799,0.2796,0.2783,0.2745,0.2738,0.2738,0.2694,0.2685,0.2692,0.2686,0.2646,0.2643,0.2642,0.2704,0.2617,0.2617,0.2617,0.2727,0.2731,0.2734,0,0,0,0,0,0,0.2828,0.2827,0.2801,0.2805,0.28,0.2748,0.2749,0.2738,0.2734,0.2687,0.2677,0.2699,0.2644,0.2641,0.2664,0.2701,0.2617,0.2618,0.2724,0.2728,0.2732,0.2829,0,0,0,0,0,0,0.2829,0.2827,0.2848,0.2806,0.28,0.2825,0.2751,0.2739,0.2735,0.2726,0.269,0.2682,0.2642,0.2664,0.2664,0.27,0.2618,0.2721,0.2726,0.2731,0.2823,0.2836,0.2848,0,0,0,0,0,0.283,0.2878,0.2849,0.2848,0.2824,0.2827,0.2824,0.2776,0.2738,0.2759,0.2728,0.2683,0.2696,0.2667,0.2667,0.2703,0.2718,0.2725,0.2731,0.2817,0.2834,0.2848,0,0,0,0,0,0,0.2927,0.2872,0.2839,0.2875,0.2856,0.2811,0.2836,0.2795,0.2788,0.278,0.2721,0.2714,0.2745,0.2726,0.2694,0.2754,0.27,0.2707,0.2766,0.2781,0.2794,0.2799,0.2618,0,0,0,0,0,0.2952,0.2959,0.291,0.2946,0.2938,0.2889,0.2888,0.2852,0.2831,0.2823,0.2794,0.2776,0.2775,0.2777,0.2774,0.2819,0.281,0.2843,0.2856,0.2867,0.2874,0.2896,0.291,0.2754,0.2754,0.2754,0,0,0.3005,0.2976,0.2983,0.2965,0.2946,0.2954,0.2883,0.2894,0.29,0.2825,0.2845,0.2823,0.2798,0.2832,0.2846,0.2817,0.2914,0.2875,0.2883,0.2885,0.2904,0.2918,0.2932,0.2758,0.2757,0.2757,0,0,0.3106,0.3084,0.3111,0.3094,0.3066,0.3032,0.3039,0.3,0.2982,0.3,0.2944,0.295,0.2951,0.2936,0.2928,0.3021,0.298,0.3022,0.3089,0.3111,0.3123,0.3134,0.3168,0.3181,0.3028,0.3029,0.3029,0,0.3176,0.3185,0.3131,0.3146,0.314,0.307,0.3098,0.3084,0.3057,0.3054,0.3022,0.3022,0.3,0.303,0.3052,0.3048,0.3054,0.3027,0.3126,0.3136,0.3145,0.3177,0.319,0.3034,0.3033,0.3033,0.3032,0,0.3272,0.328,0.3305,0.328,0.3276,0.3298,0.3247,0.325,0.3214,0.3184,0.3203,0.3175,0.3165,0.3169,0.3135,0.3193,0.3177,0.3136,0.3081,0.3166,0.3195,0.3207,0.3042,0.304,0.3038,0.3037,0,0,0.3435,0.3378,0.3389,0.3376,0.3339,0.3344,0.3362,0.3351,0.3355,0.3338,0.3352,0.3354,0.3316,0.3307,0.327,0.329,0.3366,0.3246,0.3245,0.3271,0.3429,0.3461,0.3476,0.3337,0.3339,0.334,0.3431,0,0.3529,0.3557,0.3508,0.3547,0.3553,0.3486,0.3502,0.3481,0.3453,0.3454,0.3423,0.3426,0.3374,0.3369,0.3385,0.3353,0.3397,0.3346,0.3351,0.3351,0.3361,0.3491,0.3525,0.3613,0.3442,0.3444,0.3445,0,0.3643,0.3631,0.3671,0.3631,0.3632,0.3647,0.3632,0.3634,0.3609,0.3587,0.3577,0.3533,0.3548,0.3493,0.3513,0.3479,0.3478,0.3462,0.3464,0.3465,0.3405,0.3496,0.3639,0.3653,0.3463,0.3461,0.346,0,0.376,0.3753,0.3776,0.3767,0.372,0.3733,0.3714,0.3686,0.3682,0.367,0.3667,0.3657,0.3652,0.3645,0.3599,0.3563,0.3625,0.3566,0.3608,0.361,0.3626,0.3626,0.3773,0.3623,0.3623,0.3622,0.3622,0,0.3871,0.3898,0.3827,0.3842,0.387,0.3813,0.3842,0.3817,0.3792,0.3801,0.3742,0.3751,0.3689,0.3692,0.3656,0.3678,0.3676,0.3659,0.365,0.3666,0.3668,0.3666,0.3659,0.3626,0.3625,0.3624,0.3624,0,0.4007,0.396,0.3981,0.3934,0.3923,0.3946,0.3907,0.3918,0.3885,0.3896,0.3896,0.3845,0.3844,0.3797,0.3787,0.3763,0.3801,0.378,0.381,0.3804,0.3849,0.3846,0.4001,0.4018,0.3856,0.3857,0.3859,0,0.4082,0.4101,0.4056,0.4057,0.4041,0.4043,0.4039,0.3983,0.3981,0.3953,0.3968,0.3962,0.3955,0.3958,0.392,0.3912,0.3891,0.3946,0.389,0.3905,0.3894,0.3894,0.3896,0.3959,0.3961,0.3962,0.3964,0,0.422,0.4196,0.4191,0.4179,0.4175,0.4163,0.4147,0.4151,0.4089,0.409,0.4088,0.4083,0.4072,0.4068,0.4052,0.4033,0.3989,0.3981,0.399,0.4008,0.4025,0.4018,0.3844,0.3978,0.3977,0.3976,0.3975,0.3974,0.4329,0.4343,0.4313,0.431,0.4291,0.4278,0.4286,0.4253,0.4251,0.4237,0.4204,0.4208,0.4181,0.4156,0.414,0.4143,0.4116,0.4129,0.4133,0.4138,0.4147,0.4023,0.414,0.4139,0.4139,0.4138,0.4138,0,0.4465,0.4443,0.444,0.4419,0.4416,0.4372,0.4352,0.4353,0.4357,0.4336,0.4329,0.4327,0.4322,0.4284,0.4274,0.4284,0.4263,0.4283,0.4283,0.4279,0.4171,0.4165,0.43,0.43,0.43,0.43,0.43,0.43,0.4536,0.4558,0.4529,0.4541,0.4517,0.452,0.4512,0.4499,0.4482,0.4482,0.4477,0.4451,0.4423,0.441,0.4404,0.4392,0.4393,0.442,0.4402,0.4303,0.4287,0.4272,0.4266,0.442,0.442,0.451,0.4511,0.4512]}]]